Location: Bednik
(45.3500°N, 16.3833°E)
Time: 21:51:19
(UTC+00:00)

Cosmos 1816 Rocket - Pass Details

Date: 08 August 2020
Orbit: 950 x 1000 km, 82.9° (Epoch: 21 September)

Event Time Altitude Azimuth Distance (km) Brightness Sun altitude
Rises 21:32:18 0° 353° (N) 3,707 8.7 -25.7°
Reaches altitude 10° 21:34:52 10° 357° (N) 2,748 7.8 -25.9°
Maximum altitude 21:41:08 65° 79° (E) 1,063 4.5 -26.3°
Enters shadow 21:41:56 60° 118° (ESE) 1,110 4.5 -26.3°
